GFSSGP_925_thetae_333.txt.gz
Theta_e
322 316 315 314 315 313 314 316 314 316 320 320 319 320 323 326 327 326 334 337 337 333 335 334 333 334 334 335 334 331 330 330 325 322 321 320 318 318 318 319 319 320 320 321 321 321 322 321 320
324 319 313 311 314 312 311 311 314 316 320 318 318 320 324 328 326 335 336 337 336 334 334 334 334 335 335 334 331 330 329 327 321 317 316 313 315 316 319 319 319 319 320 320 320 321 320 320 319
317 318 313 312 312 312 314 312 312 318 317 318 322 319 322 328 330 332 334 337 335 335 335 334 335 335 334 332 331 330 329 322 317 312 311 311 314 316 318 318 318 318 318 318 318 318 318 317 317
322 316 311 313 314 312 312 313 315 318 318 318 319 322 321 327 324 334 338 338 336 335 334 334 335 335 334 331 330 329 325 317 311 308 308 312 314 316 317 317 316 317 317 317 317 318 318 317 316
317 316 320 313 310 309 308 310 313 318 318 317 317 321 322 332 334 336 339 337 336 335 335 336 336 335 331 329 329 327 319 311 307 310 309 309 312 315 316 315 314 315 316 316 316 317 316 316 316
313 316 323 317 312 310 308 308 310 315 317 315 319 320 322 333 335 335 337 337 336 335 336 337 335 332 330 328 327 320 311 307 308 310 310 309 310 311 312 311 314 315 315 316 316 316 316 316 316
316 315 323 317 311 310 310 308 312 314 316 315 316 320 320 330 334 335 338 337 336 335 334 334 331 330 329 328 321 312 307 308 310 310 310 310 310 311 310 310 312 314 314 315 315 317 315 316 315
317 315 313 313 309 311 310 310 311 313 314 311 312 320 325 327 334 334 336 337 336 334 333 331 330 329 327 321 314 308 307 309 310 310 310 310 310 310 310 310 310 310 313 314 315 316 314 315 315
314 322 320 317 312 311 309 312 309 309 312 318 320 319 322 332 334 335 336 335 334 333 331 329 328 328 323 317 310 307 309 310 310 310 310 310 309 309 310 309 309 310 312 312 313 314 315 315 316
318 324 319 314 311 311 309 310 308 310 309 308 323 324 328 331 333 333 333 332 332 331 330 329 328 326 320 313 308 309 310 310 310 310 310 310 309 309 309 309 309 311 311 312 313 315 315 315 315
315 320 315 315 313 310 309 308 307 308 309 307 309 319 314 317 323 328 330 331 331 331 329 329 326 321 314 311 310 310 310 310 311 310 311 309 307 308 309 310 311 311 312 313 314 314 315 315 314
317 314 313 314 313 311 310 308 309 308 308 306 307 308 309 309 309 309 312 322 330 330 329 327 322 317 313 310 310 310 310 311 310 311 310 307 308 309 311 311 312 312 313 313 314 314 315 315 314
318 317 315 315 315 310 310 309 309 308 307 307 308 308 308 308 307 308 310 310 317 328 329 326 320 316 311 310 310 310 310 310 311 309 307 308 309 311 311 311 311 312 313 313 314 314 315 314 314
317 317 317 316 315 311 312 310 309 309 306 308 309 309 308 307 307 307 309 311 311 322 326 323 318 313 310 310 310 310 310 311 309 307 308 309 311 311 310 310 311 312 312 313 314 314 314 313 313
317 320 319 318 316 313 311 314 310 307 307 308 308 308 308 307 307 307 306 309 316 320 320 316 313 311 310 310 310 310 311 309 307 307 309 311 311 310 310 310 311 311 312 313 313 314 314 313 313
319 319 324 319 315 312 312 315 310 306 308 309 309 309 308 307 306 306 306 307 310 311 310 309 310 310 310 310 311 311 309 307 308 308 310 311 310 310 310 310 311 312 312 313 312 313 314 314 313
318 323 322 321 316 313 313 315 308 306 308 309 308 308 308 306 305 304 304 306 308 308 309 309 309 310 310 311 311 310 309 308 308 308 309 311 310 310 310 311 311 311 312 312 312 312 312 313 313
319 318 321 321 317 313 314 312 308 306 308 308 308 308 308 306 303 301 304 306 308 309 309 310 310 310 310 311 311 310 309 308 308 309 311 311 311 310 310 310 310 310 311 311 311 311 312 312 312
314 316 318 318 315 315 314 312 309 307 307 309 309 309 307 305 302 299 301 303 305 308 309 309 310 310 311 311 311 310 310 309 309 309 310 309 310 310 310 310 310 310 311 311 311 311 311 312 312
315 317 319 318 313 314 313 312 308 307 306 307 308 309 307 305 302 299 298 300 302 303 305 307 307 308 309 310 309 309 309 309 309 310 309 310 310 311 311 312 312 312 311 311 311 312 312 312 313
312 315 316 319 312 311 313 314 309 306 306 306 305 305 304 303 301 299 297 296 299 301 302 303 305 306 307 307 308 308 308 308 308 308 308 308 309 309 309 310 310 312 312 312 312 312 313 313 313
312 312 316 318 316 318 312 321 310 307 307 306 305 304 302 300 299 297 296 294 295 297 300 301 303 304 305 306 307 306 306 305 305 305 306 306 307 307 307 308 308 309 310 311 311 311 311 312 312
312 310 314 317 318 316 313 314 314 307 308 306 305 303 300 299 297 295 294 293 293 295 297 299 301 303 303 304 304 304 302 301 301 302 303 303 303 303 304 304 305 306 307 307 307 308 309 308 309
310 312 312 314 317 323 316 315 315 309 310 307 304 301 299 297 295 293 292 292 291 293 294 297 299 299 301 302 301 300 299 298 300 298 299 298 298 299 299 299 299 300 301 301 300 302 303 302 302
315 313 315 315 320 320 310 314 317 309 306 305 303 299 296 295 294 292 291 290 290 291 291 293 295 295 296 297 297 297 296 296 295 294 293 294 294 295 293 294 293 293 293 294 294 296 296 296 297
313 313 316 317 317 314 311 314 312 303 301 302 301 296 294 293 291 291 289 288 288 288 289 290 291 291 292 292 292 292 292 291 291 290 290 290 290 290 287 287 287 287 287 287 287 287 288 288 292
314 316 312 315 305 313 311 309 303 299 298 297 295 294 293 291 290 289 288 286 286 286 286 287 287 287 287 287 287 287 287 286 286 286 286 286 287 287 285 285 285 285 285 285 284 284 285 285 288
312 311 316 316 320 319 314 312 313 303 300 297 295 294 292 290 289 288 286 284 284 284 284 284 284 284 284 284 284 284 283 283 283 284 283 284 284 284 284 284 283 283 283 283 283 282 282 282 284
312 313 312 314 314 317 314 311 305 304 301 298 295 293 291 290 289 287 284 283 283 283 283 283 282 282 282 282 282 282 282 282 282 282 282 282 283 283 283 282 282 282 281 281 281 281 281 280 282
308 312 310 317 313 308 310 310 299 298 300 297 295 292 291 289 287 285 283 282 282 282 281 281 281 281 281 281 281 281 281 281 281 281 281 281 281 281 281 281 281 281 281 280 280 279 279 279 280

GFSSGP_925_thetae_336.txt.gz
Theta_e
323 319 316 315 319 320 319 323 320 321 325 324 323 325 330 332 332 337 337 339 337 335 335 336 333 335 333 335 332 330 329 327 325 323 321 319 319 320 321 321 321 321 321 322 322 322 322 320 320
322 323 315 318 319 318 319 320 321 323 325 324 325 326 328 334 335 339 340 339 336 336 335 336 334 334 335 333 330 329 329 324 320 319 318 318 318 320 320 320 319 320 320 320 320 321 320 319 319
326 330 318 319 318 317 320 319 320 323 322 323 326 325 328 336 336 336 338 338 337 336 336 336 335 336 334 330 330 329 327 320 313 312 318 319 319 318 319 318 318 318 319 319 318 319 318 318 318
323 320 317 318 318 318 318 318 319 323 322 322 325 328 329 331 330 337 338 338 337 336 335 335 336 335 332 331 330 328 323 314 311 312 317 317 317 317 317 316 316 317 318 317 318 318 317 318 317
321 323 323 322 316 314 313 314 317 323 323 323 321 325 330 334 336 336 339 338 337 335 335 336 335 333 330 330 328 326 316 309 309 310 311 312 315 316 315 315 316 317 316 317 317 318 318 318 318
324 322 329 330 320 314 313 313 314 321 321 321 323 325 333 334 336 337 338 338 337 336 336 336 334 331 330 328 327 318 309 308 310 310 310 309 310 310 311 310 315 316 316 317 317 319 318 318 318
322 328 326 324 319 314 314 314 316 321 321 320 321 326 333 334 335 337 338 338 336 335 336 333 331 329 329 328 319 311 308 309 310 310 310 309 310 310 310 309 310 314 315 316 317 317 318 317 316
317 318 322 322 318 314 315 314 314 318 317 318 321 327 335 333 335 336 335 334 335 333 332 330 329 328 326 321 312 309 309 310 310 310 310 310 310 309 309 310 309 311 312 313 316 316 315 315 316
319 324 321 323 317 315 314 315 313 314 323 327 327 325 329 333 334 335 335 334 333 331 330 328 328 327 322 315 309 309 310 310 310 310 310 312 311 311 311 309 310 311 312 313 315 315 315 315 316
323 326 321 314 314 314 313 314 312 314 318 322 329 322 324 332 334 335 335 334 330 330 329 328 327 322 317 310 309 310 310 311 311 311 312 311 310 309 310 311 311 312 313 314 315 315 316 316 316
316 326 317 315 314 313 312 313 312 313 316 314 316 316 313 317 318 327 331 332 331 329 327 326 323 319 312 310 310 311 312 313 312 312 310 310 311 312 313 313 314 314 315 316 317 317 317 316 317
317 316 317 317 315 312 313 313 313 313 312 311 313 313 313 313 312 312 313 315 327 328 326 324 318 315 311 311 311 312 312 312 312 311 310 311 312 313 313 313 314 315 316 316 316 316 317 316 316
317 316 315 316 312 312 312 313 313 312 312 312 312 313 313 313 312 312 312 313 316 326 324 321 316 313 311 311 311 312 312 312 310 310 310 311 312 312 312 313 313 314 315 316 316 316 316 316 315
317 317 317 317 312 311 314 312 313 311 311 313 313 313 312 312 312 312 312 313 314 323 322 316 313 311 310 311 312 312 311 310 309 310 311 311 312 312 312 311 312 313 315 315 315 316 316 316 315
318 320 319 318 315 313 315 316 314 310 311 313 313 313 311 309 309 309 311 312 316 314 316 312 310 310 311 311 312 311 309 309 310 310 311 311 312 311 310 311 311 312 314 314 315 315 316 316 315
320 320 321 320 316 312 314 318 313 310 312 314 313 312 310 308 307 307 309 310 309 308 309 309 310 310 311 312 311 310 309 309 310 310 312 311 310 310 310 311 311 311 311 313 314 314 315 315 315
318 324 323 322 318 314 314 318 312 309 312 314 313 311 309 309 307 306 306 307 308 308 309 309 310 310 312 311 311 310 309 309 310 311 312 311 310 310 310 310 310 311 311 311 312 313 314 314 314
324 324 323 324 320 317 316 317 312 310 312 313 312 310 309 308 306 305 304 304 305 306 308 309 309 310 310 311 311 311 310 309 310 310 309 310 310 310 310 310 310 311 311 312 311 313 313 314 313
319 318 324 320 317 317 319 318 313 311 312 313 311 310 309 307 304 304 303 303 304 304 305 306 308 309 311 311 312 311 311 311 311 309 310 310 311 311 311 312 312 312 312 312 313 313 314 314 313
318 319 320 320 316 315 316 317 313 311 312 313 312 310 308 306 305 303 302 302 303 303 303 304 305 307 309 310 310 310 310 308 309 309 309 309 309 309 309 310 311 311 311 312 312 312 313 313 313
316 318 320 321 318 313 316 318 315 311 309 309 310 309 308 307 305 303 301 300 300 300 300 300 302 304 306 309 309 309 309 309 307 306 306 306 306 306 307 307 308 308 308 309 309 310 310 313 312
317 314 318 316 318 323 316 328 319 314 311 310 309 308 307 305 302 301 300 299 298 297 299 299 301 302 305 305 307 307 307 305 302 302 302 303 304 304 305 305 306 306 304 304 304 305 305 306 305
316 314 317 319 319 319 317 321 322 313 314 311 310 308 307 304 302 300 298 296 296 296 297 297 299 301 303 304 304 303 302 301 300 300 300 299 300 299 299 300 300 300 299 299 300 300 301 301 301
313 314 315 318 319 325 321 320 323 316 315 314 310 308 306 302 300 297 296 294 294 295 296 296 297 300 300 299 299 299 299 298 298 297 298 297 296 295 294 294 294 293 294 295 297 296 298 299 296
313 314 321 323 324 322 315 320 321 315 311 312 311 308 305 302 299 297 296 295 294 294 294 294 294 294 294 294 296 295 295 294 294 294 294 294 294 292 290 290 290 290 290 290 291 291 293 294 291
313 313 318 320 320 318 312 318 318 307 304 305 308 307 303 299 297 295 294 293 291 291 291 291 291 290 290 291 291 291 291 290 290 290 290 290 289 289 288 287 287 287 287 288 288 288 290 291 289
315 316 313 316 312 318 316 313 312 304 303 305 305 302 300 297 295 294 292 290 289 289 289 289 288 287 287 288 287 287 287 287 286 286 286 286 286 286 286 285 285 285 286 286 286 285 286 288 288
315 315 317 319 321 319 317 316 316 309 307 303 301 301 299 296 294 292 290 288 287 286 285 285 285 285 285 285 285 285 285 284 284 284 284 284 284 285 285 284 284 283 284 284 284 284 284 285 284
315 317 316 316 316 319 319 317 312 310 308 304 302 301 298 295 293 292 289 287 285 285 284 283 283 283 283 283 283 283 283 283 282 282 282 283 283 283 283 283 283 282 282 282 282 282 282 283 281
314 314 316 318 317 316 316 316 304 304 304 304 302 299 296 295 293 290 287 285 284 284 283 282 282 282 282 282 282 282 281 281 281 281 281 281 281 282 282 282 282 282 281 281 281 281 281 281 280

GFSSGP_925_thetae_342.txt.gz
Theta_e
325 331 322 321 324 323 326 324 323 324 327 326 329 336 341 341 345 348 338 336 336 335 334 333 332 335 334 330 329 328 327 322 322 322 322 322 322 322 321 320 320 321 321 322 322 321 321 320 320
325 327 322 323 327 327 324 322 324 327 328 327 326 332 338 342 337 339 338 336 336 335 335 333 334 335 331 329 329 328 323 319 321 321 321 321 321 320 319 319 320 320 320 321 321 320 320 319 319
327 327 321 328 324 322 323 322 326 325 325 327 328 329 336 340 337 339 338 335 334 334 334 334 335 334 330 329 328 326 318 316 319 319 320 319 319 319 318 318 319 319 320 320 321 319 320 320 320
330 331 329 333 328 319 320 321 325 324 324 325 329 337 335 337 338 338 336 335 335 336 336 335 335 331 329 328 326 322 313 314 315 317 317 317 317 317 317 317 317 318 318 319 320 321 321 320 320
329 333 334 327 329 317 317 319 322 325 324 324 325 337 338 337 338 337 337 336 336 336 336 335 332 329 327 327 324 315 310 310 311 310 309 310 312 315 314 316 317 318 318 319 320 320 320 320 319
333 330 338 330 327 317 317 317 319 324 323 324 331 335 337 337 339 336 337 337 335 335 334 332 330 329 327 325 319 311 309 310 310 310 310 311 311 310 312 314 316 317 318 319 319 319 319 318 318
335 337 339 330 322 317 317 317 319 322 322 324 325 337 337 337 338 338 337 335 333 333 332 330 327 324 323 320 314 310 310 311 311 312 311 312 312 312 311 311 311 313 315 316 317 317 317 318 318
325 333 332 329 321 320 316 317 317 319 325 326 327 335 338 336 338 335 333 332 331 330 329 328 325 321 320 315 311 310 312 314 314 314 312 312 312 312 313 312 312 314 316 317 318 318 318 319 319
323 333 335 329 322 316 316 317 318 326 329 326 325 325 322 336 336 334 332 330 329 328 326 326 323 320 315 313 314 314 315 315 315 313 313 313 314 314 315 315 316 316 317 318 318 318 318 318 319
327 334 335 320 315 315 316 316 316 323 330 329 326 319 322 332 335 335 334 333 330 328 326 325 323 319 313 314 315 315 315 315 314 311 313 314 315 315 315 316 316 316 316 317 318 318 318 317 318
324 330 320 315 316 314 316 315 316 320 320 318 321 319 318 318 320 321 322 326 330 328 326 324 319 315 315 314 315 315 315 314 313 313 314 314 314 314 314 315 314 315 315 316 317 318 318 317 317
324 323 318 317 314 314 315 316 316 316 316 318 317 317 317 317 316 316 318 322 327 328 325 321 316 315 314 315 315 315 314 313 312 313 314 314 313 312 312 312 313 314 314 315 317 317 318 317 318
320 317 318 315 313 313 315 316 316 316 316 317 317 318 318 317 316 316 316 318 324 326 323 319 316 314 314 315 315 314 312 312 313 313 313 312 311 311 311 312 312 313 313 314 316 316 317 317 317
319 318 318 316 315 314 315 314 316 315 315 317 319 318 316 316 315 317 317 318 321 323 320 317 315 314 315 315 314 312 312 312 313 312 312 311 311 311 311 311 311 312 312 313 315 316 316 316 317
318 319 317 317 315 315 314 316 317 313 315 316 317 314 313 312 312 313 314 315 314 317 314 314 314 314 315 314 312 312 312 312 313 312 311 310 310 311 311 311 311 312 312 312 313 314 315 315 316
319 320 324 318 315 313 315 322 315 313 315 316 315 314 313 311 311 311 312 312 311 312 312 312 313 314 314 313 313 312 312 313 312 311 310 310 310 310 311 311 311 311 312 312 313 313 313 314 315
321 326 322 321 317 315 315 322 315 313 314 316 315 314 313 312 311 310 310 310 310 310 310 312 313 314 313 313 313 312 312 311 310 309 309 310 310 311 311 311 312 311 311 312 313 314 313 312 314
325 325 323 324 319 318 318 316 315 313 314 315 315 314 313 312 311 309 308 308 309 309 310 311 312 314 313 313 313 312 311 310 309 308 309 309 309 310 310 310 311 311 311 311 312 314 313 311 312
320 325 326 323 321 321 321 320 318 314 313 314 315 314 313 311 310 309 308 308 308 308 309 311 312 313 313 314 313 311 310 309 308 308 308 308 308 308 308 308 309 309 308 307 307 311 310 310 311
319 323 323 324 320 319 320 320 320 317 314 314 315 314 313 310 308 309 308 308 308 308 308 309 310 312 312 312 311 311 309 308 307 306 305 305 306 306 306 307 306 306 306 305 305 306 308 308 306
319 321 321 323 319 316 316 319 318 317 315 314 314 314 313 311 309 308 308 308 307 306 306 306 308 309 310 310 310 309 308 307 306 304 303 302 302 302 303 303 303 303 303 303 303 304 303 304 305
320 317 316 318 321 324 318 325 322 319 318 315 314 314 313 311 310 308 307 307 305 303 304 304 305 306 309 309 309 309 309 307 304 302 302 300 299 299 299 300 299 300 299 300 301 299 301 298 298
317 315 316 319 319 321 321 322 320 320 320 317 314 313 313 311 309 308 306 306 303 302 303 303 303 304 306 307 308 308 306 304 302 301 301 298 297 296 296 295 296 296 296 297 295 296 295 293 291
315 315 316 317 317 320 319 319 319 319 320 319 315 312 312 311 309 307 306 303 302 301 301 301 301 301 302 304 305 305 304 302 301 301 299 296 294 293 292 292 292 292 293 294 292 292 290 290 289
315 316 318 320 320 320 317 320 319 317 317 316 316 312 311 310 308 305 302 301 300 300 301 300 299 298 299 300 301 301 301 300 299 298 297 294 292 290 289 289 290 289 290 292 291 289 286 287 288
315 315 318 321 324 319 316 318 317 315 310 308 309 312 310 309 306 303 301 300 300 300 299 298 297 296 296 297 297 297 297 297 296 294 293 291 289 288 287 287 288 287 287 289 289 288 285 285 286
315 316 314 315 313 317 315 315 313 309 308 309 309 311 310 307 304 301 300 300 298 298 297 296 295 294 294 294 294 293 293 293 292 291 290 288 287 286 286 286 286 286 286 286 285 285 284 284 284
314 314 316 315 316 320 315 315 316 314 311 307 309 310 308 305 302 300 299 297 296 295 295 294 293 292 291 291 290 290 289 290 290 289 288 287 286 285 285 285 285 284 284 285 284 283 283 282 282
314 314 315 313 314 318 317 314 309 313 312 307 307 308 306 304 300 297 296 295 293 292 291 291 290 289 288 288 288 287 287 287 287 286 286 285 285 285 284 284 283 283 283 283 282 282 281 281 281
312 313 315 316 316 314 315 315 310 308 309 308 306 306 304 301 298 295 294 292 290 289 289 288 288 288 287 287 286 286 285 285 285 285 285 285 284 284 284 283 282 282 282 282 281 281 281 280 280

GFSSGP_925_thetae_348.txt.gz
Theta_e
329 329 323 318 316 315 320 321 319 324 335 332 335 338 340 338 341 336 334 334 334 333 331 331 334 330 329 328 326 323 323 323 323 323 323 322 321 321 321 321 321 321 322 323 324 324 323 322 321
327 323 320 315 317 317 317 320 326 326 333 327 331 335 336 340 336 334 334 333 333 332 331 334 333 329 328 327 324 319 322 321 321 321 321 321 320 320 320 320 320 321 323 323 324 323 321 321 320
326 324 319 319 316 316 320 323 323 321 322 324 333 332 337 341 337 336 335 334 332 332 332 334 331 329 327 327 321 315 319 316 318 319 319 319 318 318 319 320 320 321 322 323 322 321 321 320 321
326 325 319 320 316 315 320 321 320 322 322 330 333 336 335 337 337 336 334 333 333 333 334 333 330 328 327 325 316 312 314 313 317 318 317 317 317 318 318 319 320 320 321 321 322 321 321 320 321
327 323 328 327 319 315 314 315 317 321 330 331 331 336 338 336 336 335 334 334 333 334 333 331 328 327 324 319 312 311 312 317 317 316 316 316 316 316 317 319 319 320 320 321 322 321 321 321 321
328 324 328 329 318 315 314 315 319 327 327 327 332 333 338 336 335 334 333 333 334 334 331 329 327 324 316 315 311 312 314 317 316 315 311 312 315 315 316 318 320 320 320 321 321 321 321 321 321
331 330 326 328 316 316 315 314 320 324 326 330 329 336 337 336 334 334 334 334 333 331 329 325 322 317 313 312 313 314 314 312 312 313 314 313 315 315 315 316 318 320 320 321 320 320 321 320 319
319 326 326 326 317 316 313 317 320 327 328 323 324 334 341 334 332 333 332 331 330 327 325 322 318 316 314 313 315 315 314 311 312 313 314 314 315 315 315 315 315 317 319 320 320 318 318 317 317
319 328 327 324 315 314 313 322 325 324 325 324 323 325 328 331 331 331 329 327 326 325 322 321 320 316 314 314 315 315 314 311 313 314 314 314 314 314 315 314 314 316 316 317 318 317 318 316 315
324 328 329 316 313 314 314 315 317 325 328 330 329 323 330 331 330 329 328 326 325 324 322 320 319 315 314 315 315 314 313 312 313 314 314 313 313 312 313 313 314 315 315 316 317 317 317 317 315
321 325 313 314 314 313 315 316 315 321 324 324 331 324 323 326 328 329 329 328 327 324 321 319 316 314 315 315 314 313 312 312 312 313 312 311 311 312 312 312 312 313 315 316 316 316 317 317 315
319 315 314 314 312 313 314 315 316 315 316 318 322 322 320 321 323 324 326 328 326 324 320 317 315 314 315 315 314 312 312 312 312 311 311 311 311 311 311 311 312 312 313 315 316 316 317 316 315
317 315 312 312 312 313 314 315 316 316 315 316 319 320 319 318 318 323 325 327 325 321 318 316 315 314 315 315 313 312 312 312 311 310 310 311 311 310 310 311 311 312 312 314 315 316 317 315 315
316 314 313 312 313 313 315 315 315 315 315 316 317 317 316 317 316 317 321 325 325 320 317 315 315 315 315 313 311 312 312 312 310 310 310 310 310 310 310 311 311 311 312 313 313 315 316 316 315
317 317 315 314 313 314 312 314 313 313 315 317 314 313 313 314 315 316 319 323 323 318 316 314 315 315 314 312 312 312 312 311 310 310 310 310 310 310 311 311 311 311 312 313 312 314 316 316 315
319 318 323 317 313 313 314 318 313 313 314 315 312 311 311 310 312 313 315 317 319 316 314 314 315 314 313 312 312 312 312 310 310 309 309 310 310 311 311 311 311 310 311 312 312 312 314 314 314
321 326 322 319 314 312 314 318 313 311 314 315 312 311 310 309 310 311 312 312 314 317 313 314 314 314 313 312 312 312 310 309 309 308 309 309 309 310 310 310 309 309 310 312 311 310 313 314 311
324 324 320 322 319 313 313 313 313 311 311 312 312 311 310 310 310 310 310 311 312 314 313 313 314 313 313 312 311 311 309 308 308 308 308 308 308 308 308 308 308 308 309 310 310 308 312 314 312
321 323 322 320 319 316 316 316 314 311 310 311 311 311 311 311 309 310 309 310 310 311 312 312 314 313 312 311 311 310 309 308 307 307 306 307 306 307 307 307 307 307 306 307 308 307 309 312 311
322 324 323 320 316 317 318 319 317 313 312 311 311 312 312 310 307 308 308 308 309 310 310 311 313 313 313 312 312 311 309 307 306 305 304 305 305 306 306 306 306 305 305 306 306 306 305 307 310
317 321 319 321 317 315 315 315 315 314 314 311 311 311 312 312 309 307 307 307 308 308 309 311 312 312 313 312 311 310 308 307 305 302 302 302 303 304 304 304 304 304 303 303 303 305 304 301 298
317 315 315 320 317 317 315 316 314 315 314 313 312 311 312 311 309 307 306 306 307 308 308 309 310 311 311 311 312 310 309 306 305 302 300 300 300 301 302 302 302 303 302 302 299 301 303 301 296
316 313 314 315 317 317 316 316 315 313 316 315 313 311 310 310 308 307 307 306 307 307 307 307 308 309 310 310 310 309 308 307 305 302 299 298 298 298 298 299 299 299 298 298 295 295 297 299 297
313 313 313 312 313 310 314 314 313 313 316 316 314 310 309 309 307 307 307 306 306 306 305 305 306 307 308 309 309 309 308 307 303 300 298 296 295 295 295 296 297 296 295 294 292 291 290 289 290
313 312 313 311 311 316 313 317 314 313 312 313 313 311 307 308 307 305 303 303 303 304 304 304 304 305 306 307 308 308 308 307 305 301 298 296 294 293 293 293 294 292 290 289 289 289 288 288 287
312 312 313 315 317 317 314 318 316 311 309 309 308 308 307 306 306 305 304 303 302 303 303 303 303 303 303 304 305 306 306 305 303 301 298 295 293 292 292 292 292 290 288 287 288 288 287 286 285
313 313 311 314 308 313 312 310 308 308 308 307 307 309 307 306 305 304 302 301 301 302 302 302 302 301 301 302 303 303 303 303 301 299 297 295 292 290 289 289 290 290 288 286 287 286 285 285 284
312 311 315 312 312 315 312 311 313 310 312 309 306 305 305 304 302 299 299 299 301 302 302 301 301 300 299 299 299 300 300 299 299 297 295 292 289 288 287 287 287 287 287 285 285 284 284 284 283
312 312 312 311 311 316 315 312 306 309 307 308 305 304 304 302 300 298 297 299 301 301 301 300 299 298 297 296 296 297 297 297 297 296 292 288 287 286 286 286 286 285 285 284 284 283 283 283 283
309 311 312 314 313 310 312 313 308 305 306 305 304 303 303 301 298 297 297 297 298 299 299 299 297 297 296 295 294 294 294 294 293 293 291 289 286 285 285 285 285 285 284 283 283 283 283 282 282

GFSSGP_925_thetae_354.txt.gz
Theta_e
327 326 321 315 313 316 318 319 317 330 337 333 333 331 335 335 333 329 332 333 333 332 331 331 331 328 327 325 324 324 324 323 323 323 322 321 321 322 321 321 322 324 325 324 324 322 321 322 321
325 324 318 310 313 318 318 318 322 333 334 330 331 333 334 336 332 331 333 334 332 331 331 332 330 328 326 323 323 323 322 322 322 321 321 320 321 320 321 321 321 322 324 324 323 322 321 321 321
324 321 319 311 311 317 323 324 330 332 331 329 335 332 335 335 332 333 334 333 332 331 332 331 329 327 325 320 319 320 320 321 321 320 319 319 320 320 320 320 320 322 325 324 322 322 321 321 321
324 321 312 313 315 315 324 321 324 330 328 331 332 338 335 336 334 334 334 332 331 331 333 330 328 327 324 318 315 318 320 320 319 319 318 318 319 320 320 320 320 321 324 324 322 322 321 321 321
323 317 317 314 315 315 314 315 321 327 331 331 330 336 336 335 334 333 333 332 330 332 332 330 328 325 322 317 313 315 318 318 318 318 318 318 319 320 319 319 320 320 320 321 322 321 320 320 320
327 316 316 317 315 314 316 317 326 330 329 330 332 334 335 334 334 333 332 331 331 332 331 329 326 321 315 314 314 313 312 317 317 317 318 318 318 318 318 318 319 320 320 320 320 320 320 319 318
328 318 319 314 314 315 315 316 321 326 328 330 327 335 335 331 332 333 332 331 332 332 330 327 321 315 315 315 314 313 311 312 314 314 314 314 314 315 315 318 318 319 319 320 319 319 319 318 317
323 319 322 316 314 316 315 321 323 326 327 321 322 334 336 331 330 332 332 332 331 330 327 320 317 316 315 314 314 313 312 312 313 313 314 314 314 314 314 315 316 318 319 320 319 318 318 316 316
320 322 322 322 314 313 314 325 324 323 325 325 322 326 331 329 329 330 330 329 328 326 322 318 318 315 314 314 314 313 312 313 313 313 313 312 314 314 313 314 315 316 317 318 318 315 315 315 315
326 325 324 316 311 313 314 320 325 327 327 328 329 329 329 328 328 327 326 325 323 322 319 316 317 316 314 315 314 313 312 312 312 312 311 311 312 313 312 313 314 315 316 317 316 315 315 315 315
318 329 314 313 312 312 315 317 319 325 329 327 331 330 329 328 328 327 326 326 326 324 321 318 316 315 314 315 314 312 312 311 311 310 311 311 311 311 312 312 314 315 315 316 315 314 315 314 313
318 314 313 312 311 313 315 316 318 316 319 317 330 329 329 329 327 327 326 326 325 323 321 318 317 316 314 314 313 312 312 311 310 310 310 310 310 310 311 311 312 314 314 316 315 314 314 312 306
315 313 312 311 311 311 313 315 318 318 317 322 324 326 329 329 327 328 327 326 324 323 322 320 318 316 315 314 313 312 312 311 310 310 310 310 310 310 310 311 312 313 314 316 314 314 313 309 310
313 312 312 311 311 311 314 314 313 316 316 323 325 325 323 326 325 326 327 326 324 322 321 322 317 316 315 314 313 312 312 311 310 310 310 310 310 310 310 311 311 312 313 316 314 314 314 311 311
314 316 314 312 312 312 311 314 314 313 316 323 323 321 321 322 323 324 327 327 326 324 319 318 317 315 314 314 312 312 311 311 310 310 310 310 310 310 310 310 310 311 312 314 315 313 313 312 310
319 319 325 317 312 311 313 320 312 313 315 319 319 318 314 314 317 320 322 326 326 324 317 315 315 315 315 313 312 312 311 310 310 309 309 309 310 310 310 310 310 310 311 312 314 313 312 310 308
322 327 325 323 313 312 313 317 313 312 315 316 314 314 313 312 313 314 317 321 324 322 318 315 314 314 313 312 312 311 311 310 309 308 308 308 309 309 309 309 309 309 311 311 313 313 311 308 302
326 325 322 323 318 313 313 313 311 312 314 316 315 313 312 312 312 314 314 316 318 321 317 315 314 314 313 312 312 311 310 309 308 309 307 307 307 308 308 308 307 308 310 311 311 312 308 306 301
321 321 322 320 317 315 315 314 314 311 311 312 313 313 313 313 313 313 314 314 314 314 318 315 314 313 313 311 311 310 309 308 308 309 307 307 306 307 307 307 307 307 309 310 310 309 306 302 300
320 321 322 320 316 316 316 316 316 313 311 312 313 312 312 312 309 310 312 312 312 313 313 315 313 313 313 312 312 311 310 308 307 308 307 306 306 306 306 306 306 306 306 308 308 308 303 302 303
316 319 319 319 316 314 312 312 313 312 312 311 310 310 310 311 311 308 308 310 311 311 311 312 313 313 313 312 312 310 310 308 307 307 307 306 304 305 305 305 305 305 304 306 306 308 305 304 303
315 313 316 318 315 317 312 316 314 312 311 311 311 309 309 307 308 308 308 308 309 310 310 311 312 312 312 312 311 311 311 309 309 307 306 306 304 303 303 303 304 303 303 303 305 307 307 304 304
315 312 313 314 314 315 314 313 314 310 312 312 311 309 309 307 307 308 308 309 309 309 310 310 311 312 312 312 312 311 310 310 309 307 306 305 303 301 301 301 301 302 302 302 301 304 307 305 304
311 312 309 309 310 309 312 313 314 313 313 313 311 310 309 307 305 306 308 308 308 308 309 309 310 310 311 311 311 311 311 311 309 307 305 305 302 300 299 299 299 299 299 299 298 301 303 305 304
311 312 310 306 309 310 311 313 313 311 310 310 309 308 306 305 305 305 304 305 306 307 308 308 308 309 310 310 310 310 310 310 309 308 307 305 304 301 299 298 297 297 296 296 295 295 299 300 300
312 312 310 310 313 312 311 313 311 309 307 306 305 304 304 304 304 304 303 304 305 306 307 307 308 308 308 308 308 309 309 309 309 308 307 306 305 302 298 297 296 295 294 293 291 289 289 290 292
312 313 310 312 304 311 310 308 306 306 307 303 303 303 302 301 302 302 303 304 305 305 306 307 307 307 307 307 307 307 307 307 308 308 307 306 304 302 298 295 295 294 291 290 289 288 288 287 287
311 309 313 310 308 312 310 310 309 307 306 305 305 303 301 300 300 300 301 303 304 305 305 305 306 306 307 306 305 305 305 305 306 306 305 305 303 300 298 295 294 293 289 288 287 287 286 286 286
310 311 310 310 310 314 312 307 304 307 308 305 303 301 300 299 300 299 300 302 304 304 304 304 304 305 305 305 304 303 303 303 304 304 304 304 302 299 296 293 292 291 288 287 287 286 285 285 285
307 310 309 312 312 309 311 311 305 305 303 302 303 302 300 300 301 300 301 302 302 303 302 303 303 304 304 304 303 302 301 301 301 302 302 302 300 298 295 291 290 289 288 286 286 285 285 284 284